Location: Opava
(49.9500°N, 17.9170°E)
Time: 03:09:29
(UTC+01:00)

ISS - Pass Details

Date: 07 October 2020
Orbit: 417 x 420 km, 51.6° (Epoch: 25 October)

Event Time Altitude Azimuth Distance (km) Brightness Sun altitude
Rises 19:34:49 0° 279° (W) 2,368 2.1 -13.9°
Reaches altitude 10° 19:38:10 10° 244° (WSW) 1,499 -0.1 -14.5°
Maximum altitude 19:39:16 11° 225° (SW) 1,422 -0.6 -14.7°
Drops below altitude 10° 19:40:21 10° 206° (SSW) 1,496 -0.8 -14.8°
Enters shadow 19:43:22 - 172° (S) 2,249 -0.2 -15.3°
